SCP
0 0 0 0 0 0 0 0 0 1 1 2 2 3 3 4 5 5 6 6 8 9 10 10 9 8 8 9 9 8 7 6 5 4 3 3 2 2 2 2 2 2 2 2
0 0 0 0 0 0 0 0 0 0 1 1 2 2 3 3 4 4 5 6 7 8 9 10 9 9 9 9 8 8 7 6 6 7 7 5 3 2 2 2 2 2 2 2
0 0 0 0 0 0 0 0 0 0 0 1 1 2 2 3 3 3 4 5 6 7 9 9 10 10 9 9 8 8 8 8 7 9 12 7 3 3 2 2 2 2 2 2
0 0 0 0 0 0 0 0 0 0 0 0 0 1 1 2 2 3 3 4 6 8 9 9 9 9 9 9 9 8 9 10 9 9 9 6 3 3 2 2 2 2 2 2
0 0 0 0 0 0 0 0 0 0 0 0 0 0 1 1 2 3 3 4 6 7 8 8 8 8 9 9 9 9 10 10 10 8 7 5 4 3 3 2 2 2 2 2
0 0 0 0 0 0 0 0 0 0 0 0 0 0 1 1 2 3 4 5 6 6 7 7 6 7 8 8 8 8 8 8 8 8 8 6 4 4 3 3 3 2 2 2
0 0 0 0 0 0 0 0 0 0 0 0 0 0 1 2 3 4 5 6 6 6 6 6 6 7 8 7 6 5 5 5 5 6 6 5 4 4 4 4 3 2 1 1
0 0 0 0 0 0 0 0 0 0 0 0 0 0 1 3 4 5 7 8 7 6 6 6 6 6 6 5 4 4 3 3 4 4 4 4 4 4 3 3 2 1 1 0
0 0 0 0 0 0 0 0 0 0 0 0 0 0 1 3 4 5 8 9 8 7 6 6 5 4 4 4 3 2 2 2 3 2 2 2 2 2 1 1 1 0 0 0
0 0 0 0 0 0 0 0 0 0 0 0 0 0 1 2 3 4 6 7 6 5 5 4 3 2 2 1 1 1 1 1 1 1 1 1 0 0 0 0 0 0 0 0
0 0 0 0 0 0 0 0 0 0 0 0 0 0 1 1 1 2 3 3 3 3 2 2 1 1 0 0 0 0 0 0 0 0 0 0 0 0 0 0 0 0 0 0
0 0 0 0 0 0 0 0 0 0 0 0 0 0 0 1 1 1 1 1 1 1 1 0 0 0 0 0 0 0 0 0 0 0 0 0 0 0 0 0 0 0 0 0
0 0 0 0 0 0 0 0 0 0 0 0 0 0 0 1 1 1 0 0 0 0 0 0 0 0 0 0 0 0 0 0 0 0 0 0 0 0 0 0 0 0 0 0
0 0 0 0 0 0 0 0 0 0 0 0 0 0 1 1 0 0 0 0 0 0 0 0 0 0 0 0 0 0 0 0 0 0 0 0 0 0 0 0 0 0 0 0
0 0 0 0 0 0 0 0 0 0 0 0 0 0 1 1 0 0 0 0 0 0 0 0 0 0 0 0 0 0 0 0 0 0 0 0 0 0 0 0 0 0 0 0
0 0 0 0 0 0 0 0 0 0 0 0 0 0 1 0 0 0 0 0 0 0 0 0 0 0 0 0 0 0 0 0 0 0 0 0 0 0 0 0 0 0 0 0
0 0 0 0 0 0 0 0 0 0 0 0 0 0 0 0 0 0 0 0 0 0 0 0 0 0 0 0 0 0 0 0 0 0 0 0 0 0 0 0 0 0 0 0
0 0 0 0 0 0 0 0 0 0 0 0 0 0 0 0 0 0 0 0 0 0 0 0 0 0 0 0 0 0 0 0 0 0 0 0 0 0 0 0 0 0 0 0
0 0 0 0 0 0 0 0 0 0 0 0 0 0 0 0 0 0 0 0 0 0 0 0 0 0 0 0 0 0 0 0 0 0 0 0 0 0 0 0 0 0 0 0
0 0 0 0 0 0 0 0 0 0 0 0 0 0 0 0 0 0 0 0 0 0 0 0 0 0 0 0 0 0 0 0 0 0 0 0 0 0 0 0 0 0 0 0
0 0 0 0 0 0 0 0 0 0 0 0 0 0 0 0 0 0 0 0 0 0 0 0 0 0 0 0 0 0 0 0 0 0 0 0 0 0 0 0 0 0 0 0
0 0 0 0 0 0 0 0 0 0 0 0 0 0 0 0 0 0 0 0 0 0 0 0 0 0 0 0 0 0 0 0 0 0 0 0 0 0 0 0 0 0 0 0
0 0 0 0 0 0 0 0 0 0 0 0 0 0 0 0 0 0 0 0 0 0 0 0 0 0 0 0 0 0 0 0 0 0 0 0 0 0 0 0 0 0 0 0
0 0 0 0 0 0 0 0 0 0 0 0 0 0 0 0 0 0 0 0 0 0 0 0 0 0 0 0 0 0 0 0 0 0 0 0 0 0 0 0 0 0 0 0
0 0 0 0 0 0 0 0 0 0 0 0 0 0 0 0 0 0 0 0 0 0 0 0 0 0 0 0 0 0 0 0 0 0 0 0 0 0 0 0 0 0 0 0
0 0 0 0 0 0 0 0 0 0 0 0 0 0 0 0 0 0 0 0 0 0 0 0 0 0 0 0 0 0 0 0 0 0 0 0 0 0 0 0 0 0 0 0
Wind_Speed
3 1 5 10 10 10 8 9 11 14 10 2 4 3 2 7 9 8 6 7 9 8 7 7 7 6 6 6 5 6 10 10 9 7 6 5 4 4 3 3 4 6 5 5
4 7 14 12 10 8 9 10 11 11 8 2 4 6 7 9 10 9 8 9 10 10 12 12 12 10 8 8 5 3 4 7 7 6 6 4 4 3 3 3 3 4 3 3
8 11 10 8 9 7 7 6 7 7 7 4 5 6 6 8 10 12 11 10 11 12 11 11 12 12 10 10 7 4 3 4 4 3 3 4 3 3 2 3 3 4 5 5
7 8 7 7 7 5 7 8 6 4 3 4 2 2 0 5 9 11 10 10 11 11 11 10 11 12 11 9 9 7 6 6 5 5 5 5 4 3 3 3 4 6 7 7
6 5 5 6 7 5 8 7 4 3 1 3 2 4 3 3 6 7 9 11 11 12 12 12 12 12 11 10 10 8 7 8 7 6 6 6 5 4 5 6 7 7 7 8
6 4 4 6 7 6 5 3 5 4 4 2 4 3 3 2 6 8 9 11 12 12 13 13 12 12 12 12 11 9 9 9 9 9 8 8 8 7 7 7 7 6 6 7
7 6 4 2 4 7 3 5 4 5 4 4 3 3 0 4 8 10 12 11 11 12 12 13 14 14 13 12 11 10 10 10 10 11 11 10 10 9 9 7 8 8 7 7
3 7 4 1 1 2 2 7 6 3 2 3 4 4 3 8 11 12 12 13 13 13 13 14 14 13 12 13 12 12 12 11 11 12 11 11 11 8 8 10 9 10 8 8
3 6 5 5 3 3 2 2 7 6 1 1 1 4 4 8 11 12 13 13 13 12 13 13 13 13 13 13 13 12 12 12 13 13 13 13 13 12 12 12 12 10 8 8
5 4 6 5 3 1 4 3 4 4 3 0 2 2 3 8 11 12 12 12 12 11 12 12 12 12 11 11 12 12 13 13 13 12 12 12 13 13 12 12 13 11 10 10
3 2 6 4 1 1 3 2 3 3 4 4 1 2 0 9 11 12 12 12 11 11 11 11 11 10 11 12 12 12 12 13 13 12 12 13 13 12 12 12 11 10 10 10
2 4 2 5 5 2 2 1 4 4 2 3 3 1 4 11 11 12 13 12 11 11 10 10 10 10 11 12 11 12 11 12 12 11 12 13 12 12 12 11 10 9 10 9
5 4 3 7 8 8 4 3 1 4 5 3 4 3 4 10 11 12 13 12 11 11 11 10 10 10 10 10 11 11 11 11 10 10 11 11 11 10 10 9 8 8 8 8
6 4 4 4 4 2 4 5 2 4 4 4 4 9 8 10 11 11 12 12 11 11 11 11 10 9 9 9 9 10 9 9 9 10 10 10 9 8 8 7 7 7 7 7
5 3 1 3 3 1 2 3 4 4 4 6 8 10 10 10 11 11 11 12 12 11 11 11 10 9 8 8 8 8 8 7 8 8 9 8 7 7 7 6 6 6 6 6
3 3 2 3 2 3 5 6 6 7 7 9 11 6 7 10 9 10 11 12 12 11 11 11 10 9 8 8 7 7 7 6 6 8 7 6 6 6 5 5 4 5 4 4
3 4 3 3 4 5 5 3 3 5 5 8 6 7 12 11 10 11 11 11 11 11 11 10 9 8 8 7 7 7 6 6 6 6 6 5 5 4 4 4 4 3 3 3
6 4 3 1 4 3 2 2 9 10 6 5 9 11 10 10 8 6 8 10 11 10 9 9 8 7 7 6 6 6 6 6 6 5 4 4 4 4 3 3 3 2 1 1
6 7 4 3 3 2 1 2 5 7 4 5 12 12 11 12 9 6 5 8 9 9 8 7 7 7 6 6 6 6 5 5 5 5 4 3 4 4 3 2 1 0 1 1
4 6 5 3 4 2 1 0 7 10 5 5 11 13 13 9 6 5 6 9 10 9 8 7 7 7 6 5 6 7 6 6 5 4 4 3 3 3 2 1 0 0 1 1
3 3 3 3 3 1 2 1 3 3 6 8 9 12 9 4 5 9 10 9 9 9 9 8 8 6 5 5 6 7 6 5 4 4 4 3 2 2 2 1 1 1 2 2
4 4 2 3 3 3 5 2 3 4 6 9 9 9 8 10 12 12 11 10 10 9 8 8 7 6 4 5 6 6 4 3 4 4 3 2 1 1 2 3 3 4 4 4
3 5 5 4 4 3 1 5 5 8 10 7 8 10 13 13 12 11 10 9 9 8 7 6 7 6 4 4 6 5 3 3 4 3 2 2 1 2 2 3 4 4 4 3
3 4 6 5 4 5 7 8 7 9 10 10 12 13 14 13 12 11 10 8 8 7 7 6 7 6 4 4 4 4 3 3 4 3 2 1 2 2 3 3 3 3 3 3
5 5 6 6 6 7 6 9 12 13 14 14 12 12 12 13 12 10 9 8 7 6 5 6 6 5 4 4 4 3 3 4 3 2 2 1 2 2 3 3 3 3 1 2
2 7 9 8 10 8 7 9 15 15 13 14 14 11 10 10 10 9 8 7 7 6 5 6 5 5 5 4 4 3 3 4 4 2 1 1 2 2 3 3 3 4 2 2
Wind_Direction
294 77 250 244 226 223 246 263 273 279 284 277 224 210 25 44 64 65 64 77 77 75 67 67 75 86 99 97 116 173 164 162 159 156 156 159 166 167 157 160 165 178 179 170
342 269 248 246 249 245 252 263 274 288 305 355 97 92 65 60 68 70 73 73 74 68 57 58 62 60 67 82 82 91 161 157 160 166 164 158 149 139 130 113 101 103 109 114
225 251 267 266 261 257 270 252 262 284 323 17 90 56 62 63 69 67 63 66 68 69 67 63 65 58 51 58 55 56 74 103 109 126 122 108 93 83 80 79 80 72 89 90
249 263 288 290 275 254 273 262 265 295 344 304 87 129 19 92 70 63 59 60 62 63 66 68 69 66 55 47 48 39 43 61 71 89 110 119 125 126 109 98 85 68 62 66
267 286 303 291 268 262 254 263 275 273 245 310 357 123 231 124 92 76 72 71 66 62 63 63 64 68 64 52 49 42 44 48 58 71 92 103 99 107 102 96 89 75 61 57
267 271 247 254 274 269 268 345 353 24 67 318 269 145 236 179 144 116 89 75 72 69 66 62 58 58 58 54 51 42 46 48 53 63 65 82 92 97 101 100 96 80 66 56
313 304 290 275 320 334 27 79 26 358 14 269 315 97 342 87 106 110 102 86 73 68 65 61 56 54 55 56 55 58 56 55 55 62 61 67 77 82 85 87 83 80 70 61
293 296 290 311 188 266 290 138 155 190 222 293 4 66 66 95 93 92 91 87 78 69 66 64 61 59 58 58 56 59 64 61 62 65 65 64 68 73 72 73 77 75 71 67
210 271 290 284 260 193 270 225 174 143 172 25 22 100 106 111 101 97 92 85 78 73 69 68 64 60 58 58 56 60 67 67 65 68 70 67 68 73 76 75 74 74 73 73
176 258 291 299 342 2 175 181 83 103 138 247 310 144 168 149 124 110 99 92 86 80 75 71 69 66 63 62 62 61 64 67 66 68 72 75 72 73 76 78 78 78 75 72
139 184 309 347 3 318 1 40 98 115 145 147 207 309 354 138 129 118 109 102 97 91 86 79 75 72 71 68 65 64 64 67 67 67 71 75 74 74 76 77 76 76 74 71
145 121 293 279 268 239 166 193 145 146 185 137 134 6 69 119 121 121 116 108 101 94 89 85 81 77 73 71 69 67 67 68 69 71 73 74 74 75 75 75 73 73 74 70
135 102 21 349 356 7 15 353 103 132 120 141 143 140 109 119 122 122 119 116 110 103 97 90 82 79 78 77 76 74 72 74 74 76 77 76 74 75 75 74 73 73 73 70
116 107 145 185 237 307 327 340 358 111 127 148 153 146 148 139 131 125 120 117 113 108 103 97 89 83 80 80 81 82 79 79 82 80 80 79 76 77 77 76 73 71 72 71
101 119 196 231 246 262 290 352 28 90 142 145 149 146 158 150 138 132 127 124 119 114 110 107 104 98 93 90 88 87 87 85 87 87 85 82 81 80 79 75 71 69 69 70
101 111 53 360 20 53 51 52 61 70 86 110 118 109 130 128 127 133 136 134 128 124 120 117 113 109 105 103 102 98 96 93 94 93 90 88 86 84 80 78 75 71 68 66
113 106 75 341 0 58 25 10 77 80 95 131 143 145 141 139 143 145 142 135 131 129 126 123 120 119 118 117 116 113 112 105 99 98 98 97 95 90 86 90 85 80 79 79
128 110 113 94 52 77 285 79 108 95 66 92 112 130 137 130 117 111 129 133 131 130 126 123 122 119 118 119 118 116 110 108 106 104 101 100 98 94 90 87 85 85 96 105
138 131 116 107 94 111 150 173 148 116 84 115 126 127 119 118 101 91 110 123 125 124 124 123 123 121 120 121 122 114 109 110 111 111 110 108 105 101 96 90 79 74 100 114
88 98 110 120 124 160 265 46 128 103 115 152 140 141 142 136 136 150 135 120 117 117 117 118 116 112 113 118 117 112 112 111 116 121 119 115 112 112 112 108 75 9 106 124
64 57 85 113 112 130 310 214 129 124 187 160 150 150 151 148 144 135 127 119 119 118 119 118 116 115 118 119 112 112 118 130 141 131 122 117 115 124 117 69 37 47 64 72
133 116 97 104 111 237 305 46 123 168 129 134 137 142 129 117 118 122 124 123 123 120 120 120 118 114 110 113 113 115 130 147 131 122 123 123 116 100 88 66 48 51 64 71
99 150 140 134 177 222 60 104 119 121 120 123 129 130 126 124 127 126 125 127 126 126 124 121 121 116 112 119 122 128 155 143 125 120 123 120 93 60 74 78 71 60 61 72
108 107 98 94 114 110 99 98 95 106 112 118 125 127 128 126 129 127 128 127 126 125 126 124 124 124 129 139 141 153 160 138 128 132 148 143 108 85 75 75 84 84 74 75
164 114 97 102 131 104 98 113 114 109 111 114 117 121 125 127 130 130 130 131 131 130 129 131 135 142 154 155 153 167 162 137 131 136 145 140 126 119 100 80 73 96 96 143
176 145 147 178 179 146 147 137 127 122 124 127 125 118 122 126 127 127 130 132 135 138 137 139 148 155 165 165 172 182 171 153 147 150 170 179 157 137 128 116 72 48 90 88